Showing default

FLOCK 4BE 18, 60480

Orbit data source: Space-Track

FLOCK 4BE 18, 60480 is a payload satellite owned by Planet (US) in SSO that was launched on Fri, 16 Aug 2024 UTC via an FALCON 9 launch vehicle from the Air Force Western Test Range (AFWTR). Payload-class satellites include a variety of spacecraft equipped with specific instruments for various scientific and technological missions. These include communications satellites like Starlink; space stations such as the ISS; scientific satellites like the Hubble; Earth observation satellites from companies like Planet Labs, Umbra, and HawkEye 360; GPS; miniature CubeSats for education and research; and military/defense satellites.

Loading next visibility...
Identifier
60480, 2024-149N
Orbit
SSO
Country
Flag of USUS
Related business
Manufacturer
Planet
Mission
Operational Commercial Imaging
Bus & Motor
CUBESAT 3U, Unknown motor
Mass
5.7 kg wet, 5.7 kg dry
Launch date (UTC)
2024-08-16 (1 year ago)
Launch vehicle
FALCON 9
Launch site
Air Force Western Test Range (AFWTR)
Object type
Payload
Rocket body
Debris
Shape & HBR
Box + 2 Pan, 1.0 m
Radar Cross Section
0.072 m², Medium (>0.1 m² and < 1m²)

Expand to show TLE details & history
Last TLE update: 5 hours ago

TLE from 5 hours ago
0 FLOCK 4BE 18
1 60480U 24149N   25289.61282697  .00019754  00000-0  64717-3 0  9999
2 60480  97.3972   7.2412 0005241  59.8922 300.2839 15.31677303 64898
Epoch: 2025-10-16T14:42Z
TLE epoch observation values (Epoch: 2025-10-16T14:42:28.250Z)
Latitude
0.00005°
Longitude
121.25344°
Altitude
472.105 km
Speed
7.631 km/s
True Right ascension
00h 28m 57s
True Declination
0° 00' 00"
Sunlit
Object was in full shadow at epoch
Visualization orbit readout
Latitude
Unknown
Longitude
Unknown
Altitude
Unknown
Speed
Unknown
Apparent Right ascension
Unknown
Apparent Declination
Unknown
Sunlit
N/A
Visualization observer readout
Local Sidereal Time
14:42:02
Azimuth
Unknown
Elevation
Unknown
Doppler factor
Unknown
Orbital elements
Apogee altitude
471.345 km
Perigee altitude
464.17 km
Semi-major axis
6,845.895 km
Eccentricity
0.00052
Inclination
97.3972°
RAAN
7.2412°
Arg. of periapsis
59.8922°
True anomaly
300.23202°
Mean anomaly
300.2839°
Eccentric anomaly
300.25796°
Mean motion
3.83176 °/min
Orbital period
93.95 mins
BSTAR
0.00064717
Loading maneuver chart data...
Computing Atmospheric mass density...
Loading historical data...
Loading historical data...
Loading historical data...
Loading historical data...
Loading historical data...
Loading historical data...
Loading historical data...

Documentation

Showing up to 5 results
|